Regional Weather Roundup
Issued by NWS

Home | Current Version | Previous Version | Graphics & Text | Print | Product List | Glossary On
Versions: 1 2 3 4 5 6 7 8 9 10 11 12 13 14 15 16 17 18 19 20 21 22 23 24 25 26 27 28 29 30 31 32 33 34 35 36 37 38 39 40 41 42 43 44 45 46 47 48 49 50
412
ASUS43 KMPX 251910
RWRMN
WEATHER ROUNDUP FOR MINNESOTA
NATIONAL WEATHER SERVICE TWIN CITIES/CHANHASSEN MN
200 PM CDT THU MAY 25 2017


NOTE: "FAIR" INDICATES FEW OR NO CLOUDS BELOW 12,000 FEET WITH NO
SIGNIFICANT WEATHER AND/OR OBSTRUCTIONS TO VISIBILITY. N/A MEANS
CURRENT SKY AND/OR WEATHER CONDITIONS ARE NOT AVAILABLE.

MNZ060>063-068>070-252000-
   Twin Cities Metro

CITY           SKY/WX    TMP DP  RH WIND       PRES   REMARKS
TWIN CITIES    CLOUDY    66  48  52 SE5       29.66F
ST PAUL        CLOUDY    67  51  56 S8        29.67F
CRYSTAL        CLOUDY    67  46  47 S12G17    29.65S
BLAINE         PTSUNNY   66  46  48 SE8       29.66F
LAKEVILLE      CLOUDY    64  50  59 S8        29.66F
EDEN PRAIRIE   CLOUDY    69  50  50 S9        29.65F
SOUTH ST PAUL  CLOUDY    67  49  52 S7        29.67S
LAKE ELMO      FAIR      66  50  55 SE13      29.67F
$$
MNZ001>005-007-008-013>017-022>024-027-028-252000-
   Northwest Minnesota

CITY           SKY/WX    TMP DP  RH WIND       PRES   REMARKS
BEMIDJI        PTSUNNY   65  45  48 SE15G24   29.60F
HALLOCK        CLOUDY    70  45  40 SE26      29.50S
ROSEAU         CLOUDY    66  48  52 S16G25    29.57F
WARROAD        CLOUDY    64  48  55 SE15G23   29.59F
THIEF RVR FALL PTSUNNY   65  44  46 S21       29.56S
CROOKSTON      CLOUDY    70  46  43 SE26G32   29.52F
FOSSTON        MOSUNNY   66  45  45 SE16G23   29.57S
DETROIT LAKES  MOSUNNY   64  46  52 SE20G29   29.57F
MOORHEAD       PTSUNNY   66  46  48 S24G31    29.52S
PARK RAPIDS    LGT RAIN  67  42  40 SE22G29   29.60F
MAHNOMEN       FAIR      65  45  47 SE21G26   29.55S
$$
MNZ006-009>011-018-025>026-252000-
   North Central Minnesota

CITY           SKY/WX    TMP DP  RH WIND       PRES   REMARKS
BAUDETTE       CLOUDY    68  47  46 S18G25    29.61F
FLAG ISLAND    CLOUDY    59  48  67 S14       29.60F
INTL FALLS     CLOUDY    66  45  46 SE13G18   29.64F
WASKISH        PTSUNNY   68  46  45 S12G20    29.61F
BIG FORK       CLOUDY    64  46  52 S8        29.66S
LONGVILLE      PTSUNNY   64  46  52 SE8       29.64S
GRAND RAPIDS   CLOUDY    63  47  55 S14G21    29.67F
CRANE LAKE     MOSUNNY   64  45  48 E6        29.69S
ORR            MOSUNNY   64  41  42 S14       29.65F
COOK           MOSUNNY   64  45  48 S10       29.68F
WALKER         MOCLDY    62  45  54 S10       29.61F
$$
MNZ012-019>021-037-252000-
   Northeast Minnesota

CITY           SKY/WX    TMP DP  RH WIND       PRES   REMARKS
DULUTH         MOSUNNY   63  49  60 E15       29.70F
ELY            PTSUNNY   63  41  45 E13       29.70F
HIBBING        PTSUNNY   61  45  55 SE15G21   29.68F
EVELETH        MOSUNNY   63  38  39 SE16G25   29.70F
DULUTH HARBOR  SUNNY     50  45  81 E9        29.73F
TWO HARBORS    SUNNY     63  48  59 E17       29.70F
SILVER BAY     MOSUNNY   59  45  58 E13       29.72F
GRAND MARAIS     N/A     51  41  68 E7        29.75F
G MARAIS ARPRT MOSUNNY   61  39  44 SE8       29.76F
$$
MNZ029>031-032-039>041-046>048-054>057-064-252000-
   West Central Minnesota

CITY           SKY/WX    TMP DP  RH WIND       PRES   REMARKS
FERGUS FALLS   MOSUNNY   68  48  49 S23G32    29.53S
WHEATON        CLOUDY    66  48  52 SE22G30   29.54R
MORRIS         MOSUNNY   70  52  52 S24G36    29.55R
ALEXANDRIA     PTSUNNY   66  47  50 SE22G30   29.59F
ELBOW LAKE     FAIR      68  50  53 SE20G32   29.56S
WADENA         PTSUNNY   64  46  52 SE20      29.59F
GLENWOOD       SUNNY     68  48  49 SE22G29   29.60S
APPLETON       MOSUNNY   70  48  46 S20G28    29.55R
BENSON         MOSUNNY   70  48  46 S20G31    29.58S
ORTONVILLE     CLOUDY    68  48  49 S15G30    29.52S
MADISON        MOSUNNY   73  52  46 S24       29.53S
WILLMAR        FAIR      68  48  49 SE20G26   29.60F
$$
MNZ033>034-036-042>043-049>051-058-059-252000-
   Central Minnesota

CITY           SKY/WX    TMP DP  RH WIND       PRES   REMARKS
ST CLOUD       CLOUDY    65  50  58 S15G24    29.63F
SAUK CENTRE    MOCLDY    66  48  51 SE21      29.61F
PAYNESVILLE    MOSUNNY   66  47  49 SE15G21   29.62F
AITKIN         CLOUDY    63  46  55 SE13G20   29.64F
PINE RIVER     CLOUDY    63  48  59 SE14      29.67S
BRAINERD       PTSUNNY   62  47  57 SE8       29.64F
STAPLES        PTSUNNY   64  45  48 SE10G20   29.62S
LONG PRAIRIE   PTSUNNY   64  46  52 E18       29.62S
LITTLE FALLS   CLOUDY    66  45  45 SE13G22   29.63F
LITCHFIELD     CLOUDY    66  50  55 SE12G22   29.63F
BUFFALO        CLOUDY    66  46  49 SE8       29.65F
MAPLE LAKE     CLOUDY    66  51  58 SE7       29.65F
HUTCHINSON     CLOUDY    66  52  60 SE15G22   29.64F
$$
MNZ037-044-045-052-053-252000-
   East Central Minnesota

CITY           SKY/WX    TMP DP  RH WIND       PRES   REMARKS
PRINCETON      CLOUDY    70  48  46 SE13      29.66S
MORA           PTSUNNY   63  46  55 SE9       29.68F
CAMBRIDGE      MOSUNNY   68  50  52 S13       29.64F
RUSH CITY      CLOUDY    66  48  51 SE9       29.67F HAZE
MOOSE LAKE     PTSUNNY   66  45  45 S8        29.66F
HINCKLEY       MOCLDY    68  50  52 S8        29.67F
CLOQUET        SUNNY     61  43  51 E13       29.69F
MCGREGOR       CLOUDY    64  46  52 SE7       29.67F
$$
MNZ071>073-080-081-089-090-097-098-252000-
   Southwest Minnesota

CITY           SKY/WX    TMP DP  RH WIND       PRES   REMARKS
MONTEVIDEO     MOSUNNY   68  52  56 S18G26    29.56S
CANBY          PTSUNNY   70  49  48 SE20G25   29.54F
MARSHALL       MOSUNNY   70  52  52 S22G31    29.55F
REDWOOD FALLS  MOSUNNY   69  48  47 SE20G29   29.59S
OLIVIA         MOSUNNY   70  50  49 SE15G26   29.59F
PIPESTONE      SUNNY     70  46  43 S24       29.54S
WINDOM         SUNNY     68  48  49 SE18G33   29.59F
WORTHINGTON    SUNNY     69  49  48 S24       29.57F
JACKSON        SUNNY     68  46  45 S22       29.61F
TRACY          MOSUNNY   69  54  58 SE16G26   29.58R
SLAYTON        SUNNY     69  51  53 S25G32    29.58R
$$
MNZ065>067-074>077-082>085-091>093-252000-
   South Central Minnesota

CITY           SKY/WX    TMP DP  RH WIND       PRES   REMARKS
MANKATO        CLOUDY    66  50  56 S14G21    29.64F
NEW ULM        MOSUNNY   66  48  52 SE14G24   29.62S
ST JAMES       MOSUNNY   68  50  52 S16G23    29.62F
FAIRMONT       MOSUNNY   68  49  50 S21       29.62F
GLENCOE        CLOUDY    67  53  59 SE14      29.63F
FARIBAULT      MOSUNNY   66  52  59 SE7G16    29.67S
OWATONNA       MOSUNNY   66  50  55 SE9       29.66F
WASECA         MOSUNNY   64  50  59 SE12G17   29.67S
ALBERT LEA     CLOUDY    66  50  55 S12       29.66F
$$
MNZ078>079-086>088-094>096-252000-
   Southeast Minnesota

CITY           SKY/WX    TMP DP  RH WIND       PRES   REMARKS
ROCHESTER      CLOUDY    65  54  67 S13       29.67F
RED WING       MOSUNNY   70  48  46 E8        29.65F
STANTON        PTSUNNY   67  50  53 S6        29.65F
DODGE CENTER   MOSUNNY   64  50  59 SE5       29.68S
WINONA         SUNNY     70  54  56 E7        29.67F
AUSTIN         MOSUNNY   64  52  63 SE5       29.67S
PRESTON        MOSUNNY   64  51  63 SE8       29.68S
$$
ABBREVIATIONS USED IN REMARKS
   TC - TEMPERATURES IN CELSIUS
  WCI - WIND CHILL INDEX
   HX - HEAT INDEX
  VSB - VISIBILITY
$$




USA.gov is the U.S. government's official web portal to all federal, state and local government web resources and services.